Location: Columbia
(38.9520°N, 92.3340°W)
Time: 16:03:59
(UTC-05:00)

Iridium 22 - Visible Passes

Search period start: 19 April 2015 00:00
Search period end: 29 April 2015 00:00
Orbit: 776 x 779 km, 86.4° (Epoch: 19 April)

Date Brightness Start Highest point End Pass type
(mag) Time Alt. Az. Time Alt. Az. Time Alt. Az.
19 Apr 7.9 01:46:07 18° NE 01:46:07 18° NE 01:47:51 10° NNE visible
19 Apr 7.3 03:26:35 21° NW 03:26:35 21° NW 03:28:43 10° NNW visible
20 Apr 8.3 01:12:39 11° NE 01:12:39 11° NE 01:13:04 10° NE visible
20 Apr 7.2 02:53:07 28° NNW 02:53:07 28° NNW 02:55:36 10° N visible
21 Apr 7.3 02:19:40 28° N 02:19:40 28° N 02:22:07 10° N visible
22 Apr 7.6 01:46:10 23° NNE 01:46:10 23° NNE 01:48:18 10° NNE visible
22 Apr 7.6 03:26:39 17° NW 03:26:39 17° NW 03:28:20 10° NNW visible
23 Apr 8.0 01:12:42 15° NE 01:12:42 15° NE 01:14:02 10° NNE visible
23 Apr 7.3 02:53:10 24° NNW 02:53:10 24° NNW 02:55:29 10° NNW visible
24 Apr 7.2 02:19:41 29° N 02:19:41 29° N 02:22:12 10° N visible
25 Apr 7.4 01:46:11 27° NNE 01:46:11 27° NNE 01:48:35 10° N visible
25 Apr 7.8 03:26:39 12° NW 03:26:39 12° NW 03:27:34 10° NW visible
26 Apr 7.7 01:12:41 20° NE 01:12:41 20° NE 01:14:37 10° NNE visible
26 Apr 7.5 02:53:09 20° NW 02:53:09 20° NW 02:55:12 10° NNW visible
27 Apr 8.1 00:39:11 13° NE 00:39:11 13° NE 00:40:03 10° NE visible
27 Apr 7.2 02:19:39 27° NNW 02:19:39 27° NNW 02:22:09 10° N visible
28 Apr 7.2 01:46:08 30° N 01:46:08 30° N 01:48:44 10° N visible
